Weather reports worldwide

Advertisment
Brodersby-Schönhagen, Germany (10042): temperature & dewpoint: 12.01.2020 12:00:00 - 18.01.2020 12:00:00 (CET)Brodersby-Schönhagen, Germany (10042): temperature 5cm & temperature -5cm: 12.01.2020 12:00:00 - 18.01.2020 12:00:00 (CET)Brodersby-Schönhagen, Germany (10042): temperature -20cm & temperature -100cm: 12.01.2020 12:00:00 - 18.01.2020 12:00:00 (CET)Brodersby-Schönhagen, Germany (10042): wind speed & gusts: 12.01.2020 12:00:00 - 18.01.2020 12:00:00 (CET)Brodersby-Schönhagen, Germany (10042): wind direction: 12.01.2020 12:00:00 - 18.01.2020 12:00:00 (CET)Brodersby-Schönhagen, Germany (10042): reduced air pressure: 12.01.2020 12:00:00 - 18.01.2020 12:00:00 (CET)Brodersby-Schönhagen, Germany (10042): visibility: 12.01.2020 12:00:00 - 18.01.2020 12:00:00 (CET)Brodersby-Schönhagen, Germany (10042): sunshine duration: 12.01.2020 12:00:00 - 18.01.2020 12:00:00 (CET)Brodersby-Schönhagen, Germany (10042): precipitation: 12.01.2020 12:00:00 - 18.01.2020 12:00:00 (CET)
Date & Time tt [°C] td [°C] tt 5cm [°C] tt -5cm [°C] tt -20cm [°C] tt -100cm [°C] ff [km/h] ff [kn] fx [km/h] fx [kn] dd ppp [hPa] vv [km] sd [min] rr [mm]
18.01.2020 12:00:00 5,6 3,3 4,9 5,0 5,5 7,1 34 19 50 27 SW 1016,7 24 0 0,1
18.01.2020 11:00:00 5,5 3,0 5,2 4,8 5,5 7,1 35 19 54 29 SW 1016,4 35 1 0,0
18.01.2020 10:00:00 5,4 2,7 5,1 4,5 5,6 7,1 40 22 61 33 SW 1015,5 36 2 0,0
18.01.2020 09:00:00 5,3 2,7 4,6 4,5 5,7 7,1 36 19 58 32 SW 1015,1 36 0 0,0
18.01.2020 08:00:00 5,0 2,8 4,0 4,6 5,9 7,1 35 19 52 28 SW 1014,7 33 0 0,0
18.01.2020 07:00:00 5,3 3,1 4,8 5,0 6,0 7,1 32 17 49 26 SW 1014,4 32 0 0,0
18.01.2020 06:00:00 5,8 3,0 5,3 5,4 6,1 7,1 34 19 55 30 WSW 1013,8 44 0 0,0
18.01.2020 05:00:00 5,9 3,7 4,9 5,6 6,2 7,1 32 18 55 30 WSW 1013,3 43 0 0,0
18.01.2020 04:00:00 6,2 3,7 5,8 5,7 6,2 7,1 38 20 60 32 WSW 1012,8 48 0 0,0
18.01.2020 03:00:00 6,5 3,7 6,0 5,9 6,3 7,1 37 20 55 30 SW 1012,4 43 0 0,0
18.01.2020 02:00:00 7,1 3,9 6,5 6,3 6,3 7,1 35 19 51 28 SW 1012,1 38 0 0,0
18.01.2020 01:00:00 7,7 5,5 7,1 6,4 6,4 7,1 26 14 44 24 SW 1011,6 20 0 0,0
18.01.2020 00:00:00 7,9 6,0 7,1 6,7 6,3 7,1 24 13 40 22 WSW 1011,4 20 0 0,0
17.01.2020 23:00:00 8,1 7,1 7,5 6,7 6,3 7,1 22 12 31 17 SW 1011,2 9 0 0,1
17.01.2020 22:00:00 7,7 7,0 7,1 6,6 6,3 7,1 21 11 29 16 SW 1011,1 4,8 0 0,1
17.01.2020 21:00:00 7,7 6,7 7,0 6,6 6,3 7,1 20 11 27 15 SW 1011,1 8 0 0,4
17.01.2020 20:00:00 7,7 6,5 6,9 6,6 6,2 7,1 17 9 37 20 SW 1011,4 7 0 0,3
17.01.2020 19:00:00 8,9 5,4 7,9 6,6 6,2 7,1 18 10 32 18 SSW 1011,4 15 0 0,0
17.01.2020 18:00:00 8,9 5,1 8,2 6,6 6,2 7,1 11 6 21 11 S 1011,7 45 0 0,0
17.01.2020 17:00:00 8,8 5,0 8,1 6,7 6,2 7,1 12 6 19 10 S 1011,8 45 0 0,0
17.01.2020 16:00:00 8,9 4,9 7,1 7,3 6,0 7,1 8 5 23 12 S 1011,7 50 45 0,0
17.01.2020 15:00:00 9,7 4,9 8,7 7,6 5,8 7,1 13 7 28 15 S 1011,8 47 47 0,0
17.01.2020 14:00:00 10,4 4,7 11,0 7,4 5,4 7,1 15 8 28 15 S 1012,6 73 59 0,0
17.01.2020 13:00:00 9,4 4,7 9,3 6,3 5,1 7,1 15 8 24 13 S 1013,6 55 55 0,0
17.01.2020 12:00:00 8,6 4,4 8,3 5,4 4,9 7,1 16 9 34 18 SSW 1014,2 62 60 0,0
17.01.2020 11:00:00 7,1 4,2 6,7 4,5 4,9 7,1 22 12 34 18 SSE 1014,6 41 57 0,0
17.01.2020 10:00:00 6,5 3,9 5,7 4,0 4,9 7,1 21 11 30 16 S 1015,3 38 36 0,0
17.01.2020 09:00:00 6,5 3,8 5,2 3,8 4,9 7,1 21 11 33 18 S 1016,0 45 1 0,0
17.01.2020 08:00:00 6,3 3,7 4,9 3,9 4,9 7,1 19 10 32 17 S 1016,2 38 0 0,0
17.01.2020 07:00:00 6,6 3,9 5,2 3,8 5,0 7,1 21 11 35 19 S 1016,7 46 0 0,0
17.01.2020 06:00:00 6,5 3,9 5,1 3,7 5,0 7,1 17 9 29 16 S 1017,2 39 0 0,0
17.01.2020 05:00:00 6,2 4,0 4,4 3,8 5,1 7,1 11 6 27 15 S 1018,0 36 0 0,0
17.01.2020 04:00:00 5,7 4,0 4,3 3,9 5,2 7,1 18 10 31 17 SSE 1018,7 27 0 0,0
17.01.2020 03:00:00 5,7 4,1 4,4 3,9 5,2 7,1 19 10 29 16 S 1019,4 27 0 0,0
17.01.2020 02:00:00 6,1 4,0 4,7 3,9 5,3 7,1 19 10 30 16 S 1020,2 38 0 0,0
17.01.2020 01:00:00 5,7 4,0 4,3 3,9 5,4 7,1 16 9 25 13 S 1020,6 35 0 0,0
17.01.2020 00:00:00 5,8 4,0 4,3 4,0 5,6 7,1 16 9 28 15 S 1021,3 37 0 0,0
16.01.2020 23:00:00 6,1 3,8 4,7 4,2 5,7 7,1 18 10 27 15 S 1021,6 46 0 0,0
16.01.2020 22:00:00 6,2 3,2 4,7 4,3 5,9 7,1 18 10 30 16 S 1022,4 47 0 0,0
16.01.2020 21:00:00 6,0 4,0 4,6 4,4 6,0 7,1 18 10 29 16 S 1023,1 33 0 0,0
16.01.2020 20:00:00 5,8 4,2 4,3 4,6 6,2 7,1 16 9 26 14 S 1023,8 28 0 0,0
16.01.2020 19:00:00 5,7 4,4 4,0 4,9 6,5 7,1 14 8 21 11 SSE 1024,3 21 0 0,0
16.01.2020 18:00:00 5,7 4,3 4,0 5,5 6,7 7,1 13 7 18 10 S 1024,5 16 0 0,0
16.01.2020 17:00:00 6,1 4,1 4,4 6,3 6,7 7,1 9 5 21 11 S 1024,7 20 0 0,0
16.01.2020 16:00:00 7,4 4,9 6,7 7,2 6,7 7,1 15 8 21 11 S 1024,8 21 27 0,0
16.01.2020 15:00:00 8,0 5,1 8,1 7,4 6,6 7,0 14 8 27 14 SSW 1024,6 19 38 0,0
16.01.2020 14:00:00 7,9 5,2 7,8 7,1 6,4 7,0 20 11 35 19 SW 1024,9 21 2 0,0
16.01.2020 13:00:00 7,5 5,2 7,7 6,8 6,3 7,0 24 13 36 20 WSW 1024,9 17 2 0,0
16.01.2020 12:00:00 7,2 4,8 7,3 6,4 6,3 7,0 23 12 40 22 SW 1024,8 18 6 0,0
16.01.2020 11:00:00 6,5 4,6 6,5 6,1 6,3 7,0 25 13 42 23 SW 1024,6 16 0 0,0
16.01.2020 10:00:00 6,5 4,4 6,3 5,8 6,3 7,0 24 13 38 20 SW 1023,9 20 0 0,0
16.01.2020 09:00:00 6,6 4,5 6,2 5,9 6,3 7,0 29 15 45 24 SW 1023,0 19 0 0,0
16.01.2020 08:00:00 7,0 4,7 6,5 5,9 6,3 7,0 30 16 51 28 WSW 1022,0 24 0 0,0
16.01.2020 07:00:00 7,0 4,9 6,4 5,8 6,3 7,0 32 18 51 28 WSW 1021,1 23 0 0,0
16.01.2020 06:00:00 7,1 5,0 6,6 5,8 6,4 7,0 34 18 50 27 WSW 1020,3 24 0 0,0
16.01.2020 05:00:00 7,1 4,9 6,5 5,8 6,4 7,0 34 18 51 28 WSW 1019,6 26 0 0,0
16.01.2020 04:00:00 6,8 4,9 6,2 5,7 6,5 7,0 32 17 47 26 SW 1018,6 29 0 0,0
16.01.2020 03:00:00 7,0 5,0 6,6 5,8 6,5 6,9 31 17 44 24 WSW 1018,2 29 0 0,0
16.01.2020 02:00:00 6,7 4,7 6,3 5,5 6,7 6,9 29 16 44 24 WSW 1017,4 36 0 0,0
16.01.2020 01:00:00 6,1 4,2 5,2 5,4 6,9 6,9 28 15 47 26 WSW 1016,4 38 0 0,0
16.01.2020 00:00:00 6,2 4,0 5,3 5,6 7,1 6,9 28 15 41 22 WSW 1015,3 46 0 0,0
15.01.2020 23:00:00 6,2 4,1 5,3 6,0 7,4 6,9 27 15 41 22 SW 1014,1 46 0 0,0
15.01.2020 22:00:00 6,3 4,0 5,1 6,6 7,6 6,9 19 10 35 19 WSW 1013,0 55 0 0,0
15.01.2020 21:00:00 6,8 4,4 6,3 7,3 7,7 6,9 21 11 44 24 W 1011,9 60 0 0,0
15.01.2020 20:00:00 7,3 5,2 6,7 8,0 7,8 6,9 27 15 66 36 W 1009,9 50 0 0,3
15.01.2020 19:00:00 10,2 7,4 8,6 8,4 7,8 6,9 42 23 62 34 SW 1007,9 27 0 0,3
15.01.2020 18:00:00 10,4 7,2 8,7 8,5 7,9 6,9 44 24 64 35 SW 1006,9 24 0 0,5
15.01.2020 17:00:00 11,1 6,8 9,5 8,6 7,9 6,9 42 23 65 35 SW 1006,2 25 0 0,0
15.01.2020 16:00:00 12,1 6,1 11,3 8,7 7,9 6,9 36 19 53 29 SW 1005,7 63 0 0,0
15.01.2020 15:00:00 11,9 6,4 11,2 8,9 7,8 6,9 37 20 63 34 SW 1005,6 66 0 0,0
15.01.2020 14:00:00 12,1 6,5 11,5 9,0 7,8 6,9 36 19 68 37 SW 1005,4 58 0 0,0
15.01.2020 13:00:00 12,2 6,7 11,8 8,9 7,7 6,9 41 22 66 35 SW 1005,5 62 0 0,0
15.01.2020 12:00:00 12,3 6,7 11,6 8,9 7,6 6,8 41 22 63 34 SW 1005,0 56 0 0,0
15.01.2020 11:00:00 12,3 6,6 11,6 8,7 7,6 6,8 44 24 62 33 SW 1004,8 72 0 0,0
15.01.2020 10:00:00 12,3 6,9 11,5 8,7 7,5 6,8 42 23 68 37 SSW 1004,0 75 0 0,0
15.01.2020 09:00:00 12,0 7,4 11,2 8,6 7,5 6,8 40 22 60 33 SSW 1003,4 75 0 0,0
15.01.2020 08:00:00 11,7 7,7 10,9 8,6 7,4 6,8 33 18 55 30 SSW 1002,9 75 0 0,1
15.01.2020 07:00:00 11,5 8,1 10,8 8,6 7,4 6,8 37 20 59 32 SSW 1002,7 75 0 0,0
15.01.2020 06:00:00 10,8 8,6 9,6 8,6 7,3 6,8 36 19 65 35 SW 1002,3 9 0 0,1
15.01.2020 05:00:00 11,0 8,9 9,7 8,6 7,2 6,8 47 25 67 36 SW 1001,9 8 0 0,4
15.01.2020 04:00:00 11,4 8,4 10,4 8,5 7,1 6,8 45 24 71 38 SW 1001,6 38 0 0,0
15.01.2020 03:00:00 11,7 8,2 10,7 8,4 7,0 6,8 50 27 76 41 SW 1001,4 28 0 0,0
15.01.2020 02:00:00 11,6 8,2 11,0 8,3 6,8 6,8 48 26 71 39 SSW 1001,0 38 0 0,0
15.01.2020 01:00:00 12,0 8,0 11,3 8,1 6,7 6,8 48 26 72 39 SSW 1000,8 65 0 0,0
15.01.2020 00:00:00 11,4 7,9 10,7 7,8 6,6 6,8 40 22 70 38 SSW 1000,3 48 0 0,0
14.01.2020 23:00:00 11,0 7,5 10,3 7,5 6,5 6,8 40 22 62 33 SSW 1000,1 41 0 0,0
14.01.2020 22:00:00 10,2 7,0 9,5 7,3 6,4 6,8 37 20 57 31 SSW 1000,1 50 0 0,0
14.01.2020 21:00:00 9,0 7,7 8,1 7,2 6,3 6,8 30 16 50 27 S 1000,2 28 0 0,1
14.01.2020 20:00:00 9,4 7,4 8,8 7,0 6,3 6,8 26 14 50 27 S 1001,0 32 0 0,0
14.01.2020 19:00:00 9,2 7,5 8,5 6,8 6,3 6,8 22 12 36 20 S 1001,9 27 0 0,0
14.01.2020 18:00:00 8,8 6,9 8,2 6,6 6,3 6,8 20 11 30 16 S 1002,5 49 0 0,0
14.01.2020 17:00:00 8,7 6,0 7,8 6,7 6,2 6,8 16 9 39 21 SSW 1002,8 54 0 0,0
14.01.2020 16:00:00 9,0 6,0 8,3 7,0 6,2 6,8 24 13 44 24 SW 1003,0 56 0 0,0
14.01.2020 15:00:00 9,0 5,8 8,4 7,1 6,1 6,8 26 14 45 24 SW 1002,7 52 1 0,0
14.01.2020 14:00:00 8,7 5,7 8,3 7,1 5,9 6,8 28 15 42 23 WSW 1002,5 49 29 0,0
14.01.2020 13:00:00 8,0 4,9 7,6 6,8 5,8 6,8 27 14 44 24 WSW 1002,2 51 58 0,0
14.01.2020 12:00:00 7,6 5,0 6,7 6,5 5,7 6,8 29 16 50 27 SW 1001,6 54 2 0,1
14.01.2020 11:00:00 8,4 6,3 7,6 6,6 5,5 6,8 31 17 52 28 WSW 1001,0 33 0 1,0
14.01.2020 10:00:00 8,6 7,4 7,8 6,3 5,4 6,8 31 17 49 26 SSW 1000,0 4,3 0 0,6
14.01.2020 09:00:00 8,4 7,0 7,4 6,0 5,2 6,8 30 16 52 28 SSW 999,7 20 0 1,3
14.01.2020 08:00:00 7,9 6,6 7,0 5,6 5,1 6,8 28 15 51 28 S 999,9 18 0 1,1
14.01.2020 07:00:00 7,5 6,2 6,6 5,3 5,0 6,8 30 16 49 26 S 1000,2 11 0 1,4
14.01.2020 06:00:00 6,8 5,2 5,9 5,0 5,0 6,8 27 14 45 24 S 1001,0 9 0 0,7
14.01.2020 05:00:00 6,9 4,1 6,0 4,7 4,9 6,8 27 15 49 26 S 1001,6 30 0 0,0
14.01.2020 04:00:00 6,4 3,5 5,7 4,5 4,9 6,8 26 14 46 25 S 1002,8 38 0 0,0
14.01.2020 03:00:00 6,1 3,3 5,3 4,5 4,9 6,8 27 15 42 23 S 1003,8 41 0 0,0
14.01.2020 02:00:00 6,0 3,2 5,5 4,4 4,9 6,8 27 15 45 24 S 1005,3 39 0 0,0
14.01.2020 01:00:00 5,8 3,0 5,1 4,2 4,9 6,8 27 14 44 24 S 1006,3 41 0 0,0
14.01.2020 00:00:00 5,6 3,2 4,9 4,1 5,0 6,8 27 15 43 23 S 1007,5 41 0 0,0
13.01.2020 23:00:00 5,2 3,2 4,2 3,9 5,1 6,8 25 14 35 19 S 1009,1 28 0 0,0
13.01.2020 22:00:00 5,0 3,5 3,9 4,0 5,2 6,8 18 10 32 17 S 1009,7 15 0 0,0
13.01.2020 21:00:00 5,0 3,6 3,8 4,2 5,4 6,8 19 10 31 17 S 1010,9 14 0 0,0
13.01.2020 20:00:00 5,3 3,7 4,2 4,7 5,5 6,8 15 8 29 16 S 1012,1 16 0 0,0
13.01.2020 19:00:00 5,5 3,9 4,0 5,1 5,6 6,8 14 8 22 12 S 1012,9 14 0 0,0
13.01.2020 18:00:00 6,2 4,3 5,6 5,3 5,6 6,8 13 7 21 12 S 1013,8 16 0 0,0
13.01.2020 17:00:00 6,2 4,1 5,2 5,6 5,6 6,8 8 5 25 14 SSW 1014,0 24 0 0,0
13.01.2020 16:00:00 6,4 4,7 5,9 5,8 5,6 6,8 10 6 27 14 S 1014,2 19 0 0,0
13.01.2020 15:00:00 6,5 4,5 6,2 5,9 5,5 6,8 18 10 25 13 SW 1014,8 22 0 0,0
13.01.2020 14:00:00 6,5 5,0 6,0 5,8 5,4 6,8 16 8 29 16 SW 1015,4 13 0 0,0
13.01.2020 13:00:00 6,4 4,7 6,4 5,8 5,3 6,8 19 10 25 13 SSW 1016,1 18 0 0,0
13.01.2020 12:00:00 5,9 4,5 5,6 5,4 5,2 6,8 18 10 28 15 SSW 1016,7 13 0 0,3
13.01.2020 11:00:00 5,7 4,4 5,3 5,1 5,2 6,8 14 7 26 14 SW 1017,0 16 4 0,1
13.01.2020 10:00:00 5,5 4,3 5,1 4,9 5,2 6,8 16 8 27 14 SSW 1017,1 16 0 0,0
13.01.2020 09:00:00 5,6 4,5 5,2 4,7 5,2 6,8 19 11 29 15 SW 1017,1 17 0 0,0
13.01.2020 08:00:00 5,6 4,4 4,9 4,6 5,2 6,8 18 10 34 18 SW 1016,9 21 0 0,0
13.01.2020 07:00:00 5,6 4,5 5,2 4,5 5,3 6,8 22 12 36 20 WSW 1017,0 21 0 0,0
13.01.2020 06:00:00 5,3 4,5 4,5 4,1 5,4 6,8 17 9 30 16 SW 1016,8 17 0 0,0
13.01.2020 05:00:00 4,9 4,0 3,5 4,5 5,6 6,8 15 8 27 15 SW 1016,8 22 0 0,0
13.01.2020 04:00:00 5,8 4,4 4,7 5,1 5,7 6,8 19 10 27 15 WSW 1016,8 27 0 0,0
13.01.2020 03:00:00 6,7 5,1 6,2 5,6 5,7 6,8 21 11 31 17 WSW 1016,6 32 0 0,0
13.01.2020 02:00:00 6,8 5,7 6,1 5,5 5,7 6,8 19 10 28 15 W 1016,2 19 0 0,2
13.01.2020 01:00:00 6,7 5,3 5,7 5,8 5,7 6,8 18 10 28 15 W 1015,6 37 0 0,0
13.01.2020 00:00:00 7,0 6,2 6,5 5,9 5,7 6,8 15 8 22 12 W 1014,8 28 0 0,0
12.01.2020 23:00:00 6,8 6,2 6,2 5,9 5,7 6,8 13 7 27 14 WSW 1014,1 19 0 0,0
12.01.2020 22:00:00 6,9 6,1 6,4 5,8 5,7 6,8 17 9 25 13 WSW 1013,2 34 0 0,0
12.01.2020 21:00:00 7,2 6,2 6,5 6,0 5,7 6,8 20 11 32 17 WSW 1011,9 44 0 0,0
12.01.2020 20:00:00 7,4 6,4 6,6 6,0 5,6 6,8 24 13 51 28 WSW 1011,0 45 0 0,1
12.01.2020 19:00:00 7,6 6,5 6,8 5,9 5,5 6,8 37 20 59 32 WSW 1009,9 11 0 0,2
12.01.2020 18:00:00 7,3 6,1 6,5 5,6 5,5 6,8 35 19 50 27 SW 1009,7 6 0 0,2
12.01.2020 17:00:00 6,0 5,3 5,5 5,4 5,5 6,8 26 14 36 19 SW 1010,6 12 0 0,9
12.01.2020 16:00:00 5,7 4,7 5,2 5,4 5,5 6,8 26 14 42 23 SW 1011,2 18 0 0,7
12.01.2020 15:00:00 5,7 4,6 5,2 5,5 5,4 6,8 29 16 43 23 SW 1011,7 8 0 0,9
12.01.2020 14:00:00 5,5 4,5 5,1 5,5 5,4 6,8 29 16 44 24 SW 1012,6 3,8 0 0,6
12.01.2020 13:00:00 5,6 4,6 5,2 5,5 5,4 6,8 29 16 45 24 SW 1013,1 3,2 0 0,2
12.01.2020 12:00:00 5,7 4,6 5,2 5,5 5,4 6,8 32 18 50 27 SW 1013,7 5 0 0,2

tt = temperature
td = dewpoint
tt 5cm = temperature 5cm
tt -5cm = temperature -5cm
tt -20cm = temperature -20cm
tt -100cm = temperature -100cm
ff = wind speed
fx = gusts
dd = wind direction
ppp = reduced air pressure
vv = visibility
sd = sunshine duration
rr = precipitation

Next stations